Terminal Aerodrome Forecast
Issued by NWS Grand Forks, ND

Home | Current Version | Previous Version | Graphics & Text | Print | Product List | Glossary On
Versions: 1 2 3 4 5 6 7 8 9 10 11 12 13 14 15
000
FTUS43 KFGF 202100 AAA
TAFGFK
TAF AMD
KGFK 202115Z 2021/2118 18008KT 1SM BR OVC002
      TEMPO 2021/2024 3SM BR OVC004
     FM210100 18008KT 6SM BR OVC004
     FM211000 17009KT 5SM BR OVC009=

USA.gov is the U.S. government's official web portal to all federal, state and local government web resources and services.